FW5669 Weather Reports


Display with metric or nautical units.
time (UTC)temp
F
wind
direction
speed
MPH
gust
MPH
rain 1hr
in
rain 24hr
in
rain mn
in
humidity
%
barometer
mb
20260831163002 73 168 0.0 2.0 0.00 0.00 0.00 42 1012.9
20260831161608 72 209 0.0 3.0 0.00 0.00 0.00 45 1012.9
20260831160104 70 31 1.0 3.0 0.00 0.00 0.00 45 1013.0
20260831160002 70 35 1.0 3.0 0.00 0.00 0.00 46 1013.0
20260831154503 68 59 1.0 3.0 0.00 0.00 0.00 49 1013.0
20260831153003 67 44 1.0 3.0 0.00 0.00 0.00 52 1013.0
20260831151502 65 66 1.0 2.0 0.00 0.00 0.00 56 1013.1
20260831150002 62 58 0.0 2.0 0.00 0.00 0.00 60 1013.0
20260831144600 60 29 0.0 2.0 0.00 0.00 0.00 64 1013.0
20260831143119 59 312 0.0 1.0 0.00 0.00 0.00 65 1012.9
20260831141608 58 312 0.0 1.0 0.00 0.00 0.00 65 1012.9
20260831140005 58 312 0.0 2.0 0.00 0.00 0.00 65 1012.7
20260831134501 57 306 0.0 2.0 0.00 0.00 0.00 66 1012.4
20260831133002 58 30 0.0 1.0 0.00 0.00 0.00 64 1011.9
20260831131500 58 29 0.0 1.0 0.00 0.00 0.00 63 1011.8
20260831130001 58 30 0.0 2.0 0.00 0.00 0.00 65 1011.7
20260831124606 58 18 0.0 1.0 0.00 0.00 0.00 65 1011.7
20260831123002 58 48 0.0 0.0 0.00 0.00 0.00 64 1011.8
20260831121502 58 51 0.0 1.0 0.00 0.00 0.00 64 1011.8
20260831120001 59 51 0.0 1.0 0.00 0.00 0.00 61 1011.8
20260831114505 59 39 0.0 0.0 0.00 0.00 0.00 61 1011.8
20260831113002 58 39 0.0 2.0 0.00 0.00 0.00 64 1011.9
20260831111503 57 1 0.0 0.0 0.00 0.00 0.00 66 1012.0
20260831110110 57 349 0.0 0.0 0.00 0.00 0.00 66 1012.1
20260831104602 57 349 0.0 2.0 0.00 0.00 0.00 65 1012.1
20260831101503 59 349 0.0 1.0 0.00 0.00 0.00 62 1012.1
20260831094501 62 349 0.0 1.0 0.00 0.00 0.00 57 1012.1
20260831093000 62 349 0.0 1.0 0.00 0.00 0.00 56 1012.1
20260831091501 63 349 0.0 1.0 0.00 0.00 0.00 54 1012.2
20260831090002 63 27 0.0 2.0 0.00 0.00 0.00 54 1012.2
20260831084604 64 10 0.0 1.0 0.00 0.00 0.00 53 1012.4
20260831083104 64 14 0.0 1.0 0.00 0.00 0.00 52 1012.3
20260831081603 64 28 0.0 3.0 0.00 0.00 0.00 53 1012.4
20260831080002 62 32 0.0 1.0 0.00 0.00 0.00 55 1012.4
20260831074504 62 44 0.0 1.0 0.00 0.00 0.00 56 1012.5
20260831073101 64 44 0.0 1.0 0.00 0.00 0.00 54 1012.4
20260831073004 63 44 0.0 1.0 0.00 0.00 0.00 54 1012.4
20260831071502 64 44 0.0 2.0 0.00 0.00 0.00 54 1012.2
20260831070103 64 44 0.0 2.0 0.00 0.00 0.00 54 1012.3
20260831064502 64 44 0.0 1.0 0.00 0.00 0.00 52 1012.5
20260831063002 65 44 0.0 1.0 0.00 0.00 0.00 52 1012.4
20260831061506 65 44 0.0 1.0 0.00 0.00 0.00 51 1012.4
20260831060001 66 44 0.0 1.0 0.00 0.00 0.00 51 1012.5
20260831054502 67 44 0.0 1.0 0.00 0.00 0.00 50 1012.5
20260831053003 67 44 0.0 2.0 0.00 0.00 0.00 49 1012.5
20260831051602 67 44 0.0 3.0 0.00 0.00 0.00 48 1012.5
20260831050001 67 38 0.0 1.0 0.00 0.00 0.00 50 1012.5
20260831044502 68 31 0.0 1.0 0.00 0.00 0.00 50 1012.6
20260831043002 68 31 0.0 2.0 0.00 0.00 0.00 49 1012.4
20260831041502 68 168 0.0 1.0 0.00 0.00 0.00 49 1012.3
20260831040006 69 168 0.0 1.0 0.00 0.00 0.00 46 1012.2
20260831034607 71 168 0.0 1.0 0.00 0.00 0.00 44 1012.0
20260831033003 72 168 0.0 1.0 0.00 0.00 0.00 42 1011.9
20260831031502 74 168 0.0 0.0 0.00 0.00 0.00 40 1011.8
20260831030002 76 168 0.0 0.0 0.00 0.00 0.00 37 1011.7
20260831024502 78 168 0.0 0.0 0.00 0.00 0.00 34 1011.7
20260831023006 80 168 0.0 0.0 0.00 0.00 0.00 30 1011.5
20260831021502 82 168 0.0 0.0 0.00 0.00 0.00 28 1011.5
20260831020001 83 168 0.0 2.0 0.00 0.00 0.00 27 1011.5
20260831014602 83 220 0.0 3.0 0.00 0.00 0.00 26 1011.6
20260831013003 84 194 1.0 3.0 0.00 0.00 0.00 25 1011.6
20260831011503 84 184 0.0 2.0 0.00 0.00 0.00 24 1011.6
20260831010005 85 246 1.0 4.0 0.00 0.00 0.00 24 1011.7
20260831004503 85 327 0.0 3.0 0.00 0.00 0.00 24 1011.8
20260831003002 85 190 2.0 4.0 0.00 0.00 0.00 24 1012.0
20260831001502 86 177 0.0 4.0 0.00 0.00 0.00 25 1012.1
20260831000002 87 94 0.0 4.0 0.00 0.00 0.00 24 1012.1
20260830234506 87 240 1.0 4.0 0.00 0.00 0.00 23 1012.2
20260830233104 87 300 1.0 4.0 0.00 0.00 0.00 23 1012.2
20260830231503 87 189 2.0 6.0 0.00 0.00 0.00 23 1012.3
20260830230001 87 83 1.0 6.0 0.00 0.00 0.00 25 1012.4
20260830224602 88 162 2.0 7.0 0.00 0.00 0.00 25 1012.4
20260830224502 88 170 1.0 3.0 0.00 0.00 0.00 26 1012.4
20260830223108 88 198 1.0 7.0 0.00 0.00 0.00 26 1012.6
20260830223002 87 223 1.0 7.0 0.00 0.00 0.00 27 1012.6
20260830221502 87 125 2.0 6.0 0.00 0.00 0.00 27 1012.9
20260830220003 87 185 2.0 6.0 0.00 0.00 0.00 26 1013.0
20260830214503 86 202 2.0 5.0 0.00 0.00 0.00 28 1013.3
20260830213004 87 143 2.0 5.0 0.00 0.00 0.00 27 1013.4
20260830211503 87 124 1.0 4.0 0.00 0.00 0.00 28 1013.5
20260830210002 85 152 2.0 6.0 0.00 0.00 0.00 28 1013.6
20260830204503 85 339 1.0 4.0 0.00 0.00 0.00 28 1013.6
20260830203003 85 124 1.0 3.0 0.00 0.00 0.00 29 1013.7
20260830201502 84 148 3.0 5.0 0.00 0.00 0.00 29 1013.8
20260830200002 83 143 1.0 4.0 0.00 0.00 0.00 29 1013.9
20260830194503 82 143 1.0 5.0 0.00 0.00 0.00 30 1013.9
20260830193006 82 201 2.0 4.0 0.00 0.00 0.00 31 1013.9
20260830191507 81 233 2.0 5.0 0.00 0.00 0.00 32 1014.2
20260830190002 80 261 1.0 4.0 0.00 0.00 0.00 32 1014.2
20260830184502 80 291 2.0 6.0 0.00 0.00 0.00 33 1014.2
20260830183002 79 87 2.0 7.0 0.00 0.00 0.00 34 1014.4
20260830181503 79 132 1.0 5.0 0.00 0.00 0.00 33 1014.4
20260830180002 78 208 1.0 3.0 0.00 0.00 0.00 34 1014.4
20260830174502 77 176 1.0 4.0 0.00 0.00 0.00 34 1014.5
20260830173002 76 175 2.0 5.0 0.00 0.00 0.00 35 1014.6
20260830171503 75 249 1.0 4.0 0.00 0.00 0.00 36 1014.6
20260830170003 75 188 1.0 4.0 0.00 0.00 0.00 36 1014.5
20260830164624 73 213 0.0 2.0 0.00 0.00 0.00 38 1014.4